Tracking 35334 objects as of 13-Sep-2026
HD Live streaming from Space Station
objects crossing your sky now

CZ-4B DEB

Track CZ-4B DEB now!
10-day predictions


NORAD ID: 46472
Int'l Code: 2020-066D
Launch date: September 21, 2020
Source: People's Republic of China (PRC)
Launch site: Jiuquan Satellite Launch Center, China (JSC)

Note: This is SATELLITE DEBRIS
Your satellite tracking list
Your tracking list is empty




NASA's NSSDC Master Catalog

Two Line Element Set (TLE):
1 46472U 20066D   26255.14811828  .00000034  00000-0  90921-4 0  9992
2 46472  65.9103 263.1186 0035877 313.8740  45.9370 13.92373221303650
Source of the keplerian elements: AFSPC